Regional Weather Roundup
Issued by NWS

Home | Current Version | Previous Version | Text Only | Print | Product List | Glossary Off
Versions: 1 2 3 4 5 6 7 8 9 10 11 12 13 14 15 16 17 18 19 20 21 22 23 24 25 26 27 28 29 30 31 32 33 34 35 36 37 38 39 40 41 42 43 44 45 46 47 48 49 50

000
ASUS45 KTFX 291010
RWRMT
MONTANA REGIONAL WEATHER ROUNDUP
NATIONAL WEATHER SERVICE GREAT FALLS MT
400 AM MDT THU SEP 29 2016

NOTE: "FAIR" INDICATES FEW OR NO CLOUDS BELOW 12000 FEET WITH NO
SIGNIFICANT WEATHER AND/OR OBSTRUCTIONS TO VISIBILITY.

MTZ001>007-043-291100-
WEST OF THE DIVIDE

CITY           SKY/WX    TMP DP  RH WIND       PRES   REMARKS
KALISPELL      CLEAR     53  43  68 N8        30.02S
MISSOULA       CLEAR     52  45  77 CALM      30.05R
BUTTE          CLEAR     43  37  79 CALM      30.21R
MULLAN PASS    CLEAR     60  37  42 SE6       30.13S
ANACONDA         N/A     46  36  66 S6        30.16
DEER LODGE       N/A     45  37  76 CALM      30.17R
EUREKA           N/A     48  43  81 SW3       30.06S
HAMILTON         N/A     55  39  54 S9        30.06S
LIBBY            N/A     48  46  93 CALM      30.02S
RONAN            N/A     45  41  86 CALM      30.06S
$$

MTZ008-052>055-291100-
SOUTHWEST MONTANA

CITY           SKY/WX    TMP DP  RH WIND       PRES   REMARKS
BOZEMAN        CLEAR     46  42  86 SW6       30.18R
DILLON         CLEAR     48  38  68 S7        30.20R
W YELLOWSTONE    N/A     34  32  93 NE3       30.33S
ENNIS          CLEAR     46  37  71 SE7       30.25S
THREE FORKS      N/A     42  23  47 CALM      30.14S VSB 0
TWIN BRIDGES     N/A     41  33  73 CALM      30.16R
$$

MTZ009-010-012-014-046-048-049-054-291100-
EAST SLOPES AND CENTRAL MONTANA

CITY           SKY/WX    TMP DP  RH WIND       PRES   REMARKS
CUT BANK       CLEAR     38  37  97 N5        30.11S
GREAT FALLS    CLEAR     48  43  82 S5        30.12S
HELENA         CLEAR     50  42  74 SE3       30.14S
CHOTEAU          N/A     48  45  87 SW5       30.13S
CONRAD           N/A     38  38 100 CALM      30.11S
$$

MTZ011-013-016-021-045-047-050-051-291100-
NORTH CENTRAL MONTANA

CITY           SKY/WX    TMP DP  RH WIND       PRES   REMARKS
HAVRE          PTCLDY    43  43 100 SW6       30.09S FOG
LEWISTOWN      CLEAR     48  43  82 S7        30.13S
N BAR RANCH      N/A     64  43  45 SW10G24   30.17S
CHINOOK          N/A     48  48 100 CALM      30.09S
$$

MTZ017>020-022>027-061-062-291100-
NORTHEAST MONTANA

CITY           SKY/WX    TMP DP  RH WIND       PRES   REMARKS
GLASGOW        CLEAR     56  48  74 E16       30.12F
JORDAN           N/A     59  49  69 E7        30.12S
SIDNEY         CLEAR     49  39  68 S6        30.25F
WOLF POINT     CLEAR     58  45  62 E9        30.18F
PLENTYWOOD       N/A     54  37  54 SE9       30.24S
POPLAR           N/A     57  41  54 SE7       30.20S
SCOBEY           N/A     54  39  56 SE6       30.18R
$$

MTZ028>42-056>058-291100-
SOUTHCENTRAL AND SOUTHEAST MONTANA

CITY           SKY/WX    TMP DP  RH WIND       PRES   REMARKS
BAKER          CLEAR     51  35  54 SE15      30.26S
BILLINGS       CLEAR     52  48  86 SW6       30.15R
LIVINGSTON     CLEAR     42  41  96 NW5       30.20R
MILES CITY     CLEAR     59  42  53 SE10      30.18S
BIG TIMBER     CLEAR     46  45  93 CALM      30.21S
EKALAKA          N/A     55  38  52 SE12      30.21F
FORSYTH          N/A     57  48  72 N7        30.12F
LAUREL           N/A     49  44  83 MISG      30.12F
ROUNDUP          N/A     49  44  83 S10       30.04S
$$

REGIONAL REPORTS...DAKOTAS

CITY           SKY/WX    TMP DP  RH WIND       PRES   REMARKS
WILLISTON      CLEAR     53  40  61 S8        30.27S
MINOT          CLEAR     45  43  93 SE8       30.34S
DICKINSON      CLEAR     45  41  86 S15       30.29F
BEACH            N/A     46  37  71 SE8       30.30S
CROSBY           N/A     50  46  87 SE13      30.29S
WATFORD CITY   HAZE      48  41  76 SE8       30.29S VSB 1
BISMARCK       CLEAR     44  42  93 SE7       30.39R
GRAND FORKS    PTCLDY    45  42  89 SE3       30.45R
FARGO          MOCLDY    42  41  96 CALM      30.45R
BUFFALO SD       N/A     50  39  66 E9        30.23F
RAPID CITY     CLEAR     41  34  76 SE5       30.32S
$$

REGIONAL REPORTS...WYOMING/IDAHO/WASHINGTON

CITY           SKY/WX    TMP DP  RH WIND       PRES   REMARKS
GILLETTE       CLEAR     54  43  66 S16       30.25F
SHERIDAN       CLEAR     50  39  66 CALM      30.18R
BUFFALO WY     CLEAR     59  37  44 CALM      30.24F
CODY           CLEAR     55  39  54 CALM      30.23S
YELLOWSTONE LA   N/A     34  33  96 NW3       30.41R
IDAHO FALLS    CLOUDY    58  47  66 E6        30.19S
SALMON         CLEAR     43  37  81 CALM      30.14R
BOISE          PTCLDY    75  37  25 SE13      29.92S
SPOKANE        PTCLDY    58  42  55 NE5       29.97R
$$

REGIONAL REPORTS...ALBERTA

CITY           SKY/WX    TMP DP  RH WIND       PRES   REMARKS
EDMONTON       PTCLDY    34  30  86 NE2       30.21R
LETHBRIDGE     CLEAR     41  37  87 W7        30.12S
MEDICINE HAT   CLEAR     45  39  81 NE6       30.11F
WATERTON GATE    N/A     32  32 100 CALM        N/A
CARDSTON         N/A     39  37  93 S1          N/A
MILK RIVER       N/A     36  36 100 NW6         N/A  WCI  31
ONEFOUR          N/A     46  45  93 NE10        N/A
$$

REGIONAL REPORTS...SASKATCHEWAN

CITY           SKY/WX    TMP DP  RH WIND       PRES   REMARKS
SWIFT CURRENT  CLEAR     46  43  87 E12       30.13F
REGINA         MOCLDY    54  43  66 SE10      30.22R
SASKATOON      MOCLDY    45  45 100 N7        30.23F
CYPRESS HILLS    N/A     48  43  81 E3          N/A
VAL MARIE        N/A     48  46  93 NE7         N/A
ROCKGLEN         N/A     52  45  76 SE16        N/A
ASSINIBOIA       N/A     45  37  76 NE3         N/A
$$



USA.gov is the U.S. government's official web portal to all federal, state and local government web resources and services.